Showing default

TIANHUI 5B, 58201

Orbit data source: Space-Track

TIANHUI 5B, 58201 is a payload satellite owned by G. Cehui dili (CN) in SSO that was launched on Tue, 31 Oct 2023 UTC via a CHANG ZHENG 6A launch vehicle from the Taiyaun Space Center, China (TSC). Payload-class satellites include a variety of spacecraft equipped with specific instruments for various scientific and technological missions. These include communications satellites like Starlink; space stations such as the ISS; scientific satellites like the Hubble; Earth observation satellites from companies like Planet Labs, Umbra, and HawkEye 360; GPS; miniature CubeSats for education and research; and military/defense satellites.

Loading next visibility...
Identifier
58201, 2023-168C
Orbit
SSO
Country
Flag of CNCN / PRC
Related business
Manufacturer
DFH
Mission
Operational Civil Radar Imaging
Bus & Motor
CAST-2000?, Unknown motor
Mass
~1,000 kg wet, ~1,000 kg dry
Launch date (UTC)
2023-10-31 (2 years ago)
Launch vehicle
CHANG ZHENG 6A
Launch site
Taiyaun Space Center, China (TSC)
Object type
Payload
Rocket body
Debris
Shape & HBR
Box + 2 Pan, 7.0 m
Radar Cross Section
12.451 m², Large (>1 m²)

Expand to show TLE details & history
Last TLE update: 1 day ago

TLE from 1 day ago
0 TIANHUI 5B
1 58201U 23168C   26094.48909249  .00000761  00000-0  89685-4 0  9996
2 58201  97.8210 102.9157 0002123  95.7938 264.3521 14.87592052131640
Epoch: 2026-04-04T11:44Z
TLE epoch observation values (Epoch: 2026-04-04T11:44:17.591Z)
Latitude
0.00006°
Longitude
94.03426°
Altitude
608.642 km
Speed
7.555 km/s
True Right ascension
06h 51m 39s
True Declination
0° 00' 00"
Sunlit
Object was in daylight at epoch
Visualization orbit readout
Latitude
Unknown
Longitude
Unknown
Altitude
Unknown
Speed
Unknown
Apparent Right ascension
Unknown
Apparent Declination
Unknown
Sunlit
N/A
Visualization observer readout
Local Sidereal Time
21:09:13
Azimuth
Unknown
Elevation
Unknown
Doppler factor
Unknown
Orbital elements
Apogee altitude
603.971 km
Perigee altitude
601.007 km
Semi-major axis
6,980.626 km
Eccentricity
0.00021
Inclination
97.821°
RAAN
102.9157°
Arg. of periapsis
95.7938°
True anomaly
264.32789°
Mean anomaly
264.3521°
Eccentric anomaly
264.34°
Mean motion
3.72136 °/min
Orbital period
96.74 mins
BSTAR
0.000089685
Loading maneuver chart data...
Computing Atmospheric mass density...
Loading historical data...
Loading historical data...
Loading historical data...
Loading historical data...
Loading historical data...
Loading historical data...
Loading historical data...
Other satellites on launch #168 in the year 2023 (2023-10-31 UTC)

Documentation

Showing up to 5 results
|